LOG87JP EGPB-EGPD

Flight info

Callsign LOG87JP
Flight time 0h 56m
Altitude 14000
Route WAFIL Y905 ADN
Aircraft AT76/M-SDFGIRY/S

Departure

Time 2026-04-22 18:57
Airport Sumburgh Airport (EGPB)

Arrival

Time 2026-04-22 19:53
Airport Aberdeen International Airport (EGPD)
Time Latitude Longitude Altitude Speed Heading
2026-04-22 18:47 59.87890 -1.29301 40 ft 0 kts 95°
2026-04-22 18:53 59.87892 -1.29292 40 ft 2 kts 65°
2026-04-22 18:53 59.87901 -1.29289 40 ft 1 kts 353°
2026-04-22 18:54 59.87906 -1.29304 40 ft 2 kts 297°
2026-04-22 18:54 59.87920 -1.29362 40 ft 6 kts 293°
2026-04-22 18:54 59.87913 -1.29468 40 ft 9 kts 244°
2026-04-22 18:54 59.87895 -1.29584 40 ft 10 kts 294°
2026-04-22 18:55 59.87942 -1.29683 40 ft 10 kts 319°
2026-04-22 18:55 59.88001 -1.29774 39 ft 11 kts 323°
2026-04-22 18:55 59.88056 -1.29857 42 ft 8 kts 322°
2026-04-22 18:55 59.88103 -1.29896 43 ft 6 kts 15°
2026-04-22 18:56 59.88132 -1.29671 43 ft 44 kts 84°
2026-04-22 18:56 59.88189 -1.28654 43 ft 102 kts 83°
2026-04-22 18:56 59.88286 -1.27002 214 ft 134 kts 82°
2026-04-22 18:56 59.88404 -1.24982 488 ft 159 kts 82°
2026-04-22 18:57 59.88534 -1.22639 852 ft 180 kts 82°
2026-04-22 18:57 59.88656 -1.20043 1191 ft 197 kts 82°
2026-04-22 18:57 59.88774 -1.17224 1528 ft 211 kts 83°
2026-04-22 18:57 59.88760 -1.14255 1851 ft 222 kts 103°
2026-04-22 18:58 59.87873 -1.11663 2109 ft 237 kts 142°
2026-04-22 18:58 59.86334 -1.10550 2374 ft 246 kts 178°
2026-04-22 18:58 59.84675 -1.11356 2643 ft 250 kts 212°
2026-04-22 18:58 59.83509 -1.13851 2909 ft 249 kts 245°
2026-04-22 18:59 59.83235 -1.17196 3171 ft 247 kts 279°
2026-04-22 18:59 59.83891 -1.20278 3426 ft 242 kts 304°
2026-04-22 18:59 59.84801 -1.23107 3685 ft 244 kts 302°
2026-04-22 18:59 59.85587 -1.26122 3941 ft 246 kts 291°
2026-04-22 19:00 59.85624 -1.29507 4179 ft 253 kts 254°
2026-04-22 19:00 59.84625 -1.32392 4434 ft 260 kts 219°
2026-04-22 19:00 59.82963 -1.33770 4700 ft 264 kts 187°
2026-04-22 19:00 59.81177 -1.33367 4959 ft 261 kts 167°
2026-04-22 19:01 59.79391 -1.32548 5225 ft 263 kts 168°
2026-04-22 19:01 59.77583 -1.31877 5477 ft 265 kts 172°
2026-04-22 19:01 59.75730 -1.31612 5732 ft 268 kts 181°
2026-04-22 19:01 59.73870 -1.31838 5988 ft 266 kts 187°
2026-04-22 19:02 59.72045 -1.32336 6243 ft 263 kts 190°
2026-04-22 19:02 59.70244 -1.32881 6500 ft 260 kts 190°
2026-04-22 19:02 59.68475 -1.33401 6757 ft 259 kts 189°
2026-04-22 19:02 59.66691 -1.33861 7011 ft 260 kts 188°
2026-04-22 19:03 59.64876 -1.34298 7256 ft 265 kts 188°
2026-04-22 19:03 59.63035 -1.34743 7499 ft 268 kts 188°
2026-04-22 19:03 59.61802 -1.35043 7665 ft 270 kts 188°
2026-04-22 19:03 59.59931 -1.35493 7915 ft 272 kts 189°
2026-04-22 19:04 59.58041 -1.35948 8163 ft 273 kts 188°
2026-04-22 19:04 59.56143 -1.36407 8416 ft 275 kts 188°
2026-04-22 19:04 59.54238 -1.36857 8672 ft 276 kts 188°
2026-04-22 19:04 59.52328 -1.37312 8929 ft 277 kts 188°
2026-04-22 19:05 59.50412 -1.37771 9192 ft 277 kts 188°
2026-04-22 19:05 59.48514 -1.38232 9452 ft 278 kts 188°
2026-04-22 19:05 59.46589 -1.38696 9715 ft 278 kts 188°
2026-04-22 19:05 59.44662 -1.39145 9980 ft 279 kts 188°
2026-04-22 19:06 59.42733 -1.39603 10241 ft 279 kts 188°
2026-04-22 19:06 59.40805 -1.40060 10502 ft 279 kts 188°
2026-04-22 19:06 59.38878 -1.40531 10749 ft 279 kts 188°
2026-04-22 19:07 59.35020 -1.41452 11238 ft 279 kts 187°
2026-04-22 19:07 59.33091 -1.41907 11485 ft 279 kts 187°
2026-04-22 19:07 59.31159 -1.42362 11738 ft 279 kts 187°
2026-04-22 19:07 59.29230 -1.42820 11988 ft 279 kts 187°
2026-04-22 19:08 59.27325 -1.43267 12238 ft 279 kts 187°
2026-04-22 19:08 59.25392 -1.43725 12495 ft 280 kts 187°
2026-04-22 19:08 59.23466 -1.44179 12753 ft 279 kts 187°
2026-04-22 19:08 59.21527 -1.44633 13014 ft 279 kts 187°
2026-04-22 19:09 59.19595 -1.45089 13280 ft 279 kts 187°
2026-04-22 19:09 59.17667 -1.45540 13543 ft 279 kts 187°
2026-04-22 19:09 59.15734 -1.45994 13790 ft 280 kts 187°
2026-04-22 19:09 59.13786 -1.46452 13895 ft 285 kts 187°
2026-04-22 19:10 59.11812 -1.46913 13938 ft 285 kts 187°
2026-04-22 19:10 59.09847 -1.47374 13958 ft 283 kts 187°
2026-04-22 19:10 59.07919 -1.47822 13968 ft 281 kts 187°
2026-04-22 19:10 59.05954 -1.48279 13973 ft 280 kts 187°
2026-04-22 19:11 59.04047 -1.48725 13974 ft 279 kts 187°
2026-04-22 19:11 59.02108 -1.49176 13982 ft 279 kts 187°
2026-04-22 19:11 59.00173 -1.49624 13977 ft 280 kts 187°
2026-04-22 19:11 58.98234 -1.50076 13978 ft 280 kts 187°
2026-04-22 19:12 58.96297 -1.50527 13982 ft 280 kts 187°
2026-04-22 19:12 58.94357 -1.50975 13982 ft 281 kts 187°
2026-04-22 19:12 58.92441 -1.51420 13982 ft 281 kts 187°
2026-04-22 19:12 58.90499 -1.51869 13982 ft 280 kts 187°
2026-04-22 19:13 58.88566 -1.52322 13985 ft 281 kts 187°
2026-04-22 19:13 58.86625 -1.52766 13985 ft 281 kts 186°
2026-04-22 19:13 58.84675 -1.53204 13985 ft 282 kts 187°
2026-04-22 19:13 58.82720 -1.53653 13985 ft 283 kts 187°
2026-04-22 19:14 58.80762 -1.54108 13890 ft 286 kts 187°
2026-04-22 19:14 58.78781 -1.54561 13582 ft 283 kts 187°
2026-04-22 19:14 58.76841 -1.55004 13311 ft 279 kts 187°
2026-04-22 19:14 58.74920 -1.55445 13046 ft 277 kts 187°
2026-04-22 19:15 58.73658 -1.55735 12875 ft 275 kts 187°
2026-04-22 19:15 58.71115 -1.56320 12527 ft 273 kts 187°
2026-04-22 19:15 58.69226 -1.56748 12271 ft 272 kts 187°
2026-04-22 19:15 58.67372 -1.57170 12020 ft 271 kts 187°
2026-04-22 19:16 58.65493 -1.57598 11765 ft 271 kts 187°
2026-04-22 19:16 58.63614 -1.58027 11518 ft 270 kts 187°
2026-04-22 19:16 58.61747 -1.58453 11267 ft 270 kts 187°
2026-04-22 19:16 58.59880 -1.58877 11021 ft 270 kts 187°
2026-04-22 19:17 58.58016 -1.59298 10777 ft 270 kts 187°
2026-04-22 19:17 58.56154 -1.59720 10534 ft 269 kts 187°
2026-04-22 19:17 58.54294 -1.60143 10281 ft 269 kts 187°
2026-04-22 19:17 58.52432 -1.60564 10009 ft 269 kts 187°
2026-04-22 19:18 58.50592 -1.60978 9744 ft 269 kts 187°
2026-04-22 19:18 58.48730 -1.61396 9480 ft 269 kts 188°
2026-04-22 19:18 58.46874 -1.61815 9223 ft 269 kts 188°
2026-04-22 19:18 58.45018 -1.62235 8957 ft 268 kts 188°
2026-04-22 19:19 58.43163 -1.62652 8704 ft 268 kts 188°
2026-04-22 19:19 58.41309 -1.63072 8442 ft 268 kts 188°
2026-04-22 19:19 58.39459 -1.63490 8200 ft 267 kts 188°
2026-04-22 19:19 58.37611 -1.63908 7947 ft 267 kts 187°
2026-04-22 19:20 58.35767 -1.64308 7692 ft 267 kts 188°
2026-04-22 19:20 58.33925 -1.64714 7444 ft 266 kts 188°
2026-04-22 19:20 58.32107 -1.65123 7201 ft 266 kts 188°
2026-04-22 19:20 58.30266 -1.65538 6952 ft 266 kts 188°
2026-04-22 19:21 58.28430 -1.65948 6689 ft 266 kts 188°
2026-04-22 19:21 58.26596 -1.66357 6433 ft 265 kts 188°
2026-04-22 19:21 58.24762 -1.66765 6178 ft 265 kts 187°
2026-04-22 19:21 58.22930 -1.67173 5924 ft 265 kts 187°
2026-04-22 19:22 58.21099 -1.67578 5667 ft 264 kts 187°
2026-04-22 19:22 58.19266 -1.67981 5416 ft 264 kts 187°
2026-04-22 19:22 58.17441 -1.68390 5156 ft 264 kts 187°
2026-04-22 19:22 58.15635 -1.68790 4896 ft 264 kts 186°
2026-04-22 19:23 58.13803 -1.69195 4640 ft 264 kts 186°
2026-04-22 19:23 58.11973 -1.69595 4385 ft 264 kts 186°
2026-04-22 19:23 58.10150 -1.69997 4165 ft 262 kts 186°
2026-04-22 19:23 58.08354 -1.70392 4067 ft 257 kts 186°
2026-04-22 19:24 58.06595 -1.70779 4019 ft 251 kts 186°
2026-04-22 19:24 58.04861 -1.71161 3999 ft 252 kts 186°
2026-04-22 19:24 58.03131 -1.71542 3989 ft 254 kts 186°
2026-04-22 19:24 58.01368 -1.71928 3985 ft 256 kts 186°
2026-04-22 19:25 57.99591 -1.72319 3985 ft 257 kts 186°
2026-04-22 19:25 57.97816 -1.72705 3983 ft 257 kts 186°
2026-04-22 19:25 57.96025 -1.73099 3982 ft 258 kts 186°
2026-04-22 19:25 57.94243 -1.73489 3984 ft 258 kts 186°
2026-04-22 19:26 57.92456 -1.73881 3982 ft 259 kts 186°
2026-04-22 19:26 57.90691 -1.74263 3980 ft 259 kts 186°
2026-04-22 19:26 57.88906 -1.74653 3979 ft 258 kts 186°
2026-04-22 19:26 57.87122 -1.75042 3841 ft 256 kts 186°
2026-04-22 19:27 57.85365 -1.75423 3692 ft 252 kts 186°
2026-04-22 19:27 57.83640 -1.75796 3575 ft 247 kts 186°
2026-04-22 19:27 57.81947 -1.76167 3524 ft 244 kts 185°
2026-04-22 19:27 57.80255 -1.76530 3500 ft 244 kts 186°
2026-04-22 19:28 57.78589 -1.76890 3486 ft 243 kts 186°
2026-04-22 19:28 57.76887 -1.77261 3485 ft 243 kts 185°
2026-04-22 19:28 57.75210 -1.77626 3483 ft 242 kts 186°
2026-04-22 19:28 57.73537 -1.77986 3480 ft 242 kts 185°
2026-04-22 19:29 57.71884 -1.78343 3482 ft 242 kts 185°
2026-04-22 19:29 57.70206 -1.78704 3358 ft 244 kts 185°
2026-04-22 19:29 57.68524 -1.79064 3176 ft 243 kts 185°
2026-04-22 19:29 57.66850 -1.79428 2997 ft 242 kts 185°
2026-04-22 19:30 57.65722 -1.79668 2875 ft 241 kts 185°
2026-04-22 19:30 57.63520 -1.80140 2643 ft 240 kts 185°
2026-04-22 19:30 57.61880 -1.80497 2552 ft 233 kts 185°
2026-04-22 19:30 57.60330 -1.80841 2506 ft 215 kts 185°
2026-04-22 19:31 57.58897 -1.81142 2486 ft 200 kts 184°
2026-04-22 19:31 57.57565 -1.81424 2484 ft 187 kts 185°
2026-04-22 19:31 57.56316 -1.81693 2495 ft 174 kts 185°
2026-04-22 19:31 57.55289 -1.82630 2487 ft 162 kts 220°
2026-04-22 19:32 57.54539 -1.84126 2481 ft 157 kts 229°
2026-04-22 19:32 57.53847 -1.85784 2480 ft 167 kts 232°
2026-04-22 19:32 57.53150 -1.87559 2484 ft 173 kts 232°
2026-04-22 19:32 57.52434 -1.89399 2490 ft 178 kts 232°
2026-04-22 19:33 57.51699 -1.91259 2489 ft 182 kts 232°
2026-04-22 19:33 57.50940 -1.93160 2486 ft 184 kts 232°
2026-04-22 19:33 57.50174 -1.95042 2478 ft 181 kts 230°
2026-04-22 19:33 57.49414 -1.96885 2483 ft 178 kts 231°
2026-04-22 19:34 57.48654 -1.98698 2481 ft 177 kts 230°
2026-04-22 19:34 57.47900 -2.00498 2487 ft 176 kts 230°
2026-04-22 19:34 57.47163 -2.02248 2485 ft 168 kts 230°
2026-04-22 19:34 57.46452 -2.03925 2481 ft 162 kts 230°
2026-04-22 19:35 57.45764 -2.05549 2483 ft 159 kts 230°
2026-04-22 19:35 57.45075 -2.07167 2481 ft 161 kts 230°
2026-04-22 19:35 57.44618 -2.08255 2485 ft 162 kts 230°
2026-04-22 19:35 57.43683 -2.10466 2485 ft 163 kts 230°
2026-04-22 19:36 57.42983 -2.12122 2491 ft 163 kts 230°
2026-04-22 19:36 57.42279 -2.13778 2494 ft 164 kts 230°
2026-04-22 19:36 57.41572 -2.15458 2491 ft 166 kts 229°
2026-04-22 19:36 57.40866 -2.17150 2492 ft 166 kts 230°
2026-04-22 19:37 57.40164 -2.18818 2490 ft 166 kts 231°
2026-04-22 19:37 57.39448 -2.20526 2488 ft 166 kts 230°
2026-04-22 19:37 57.38739 -2.22230 2491 ft 167 kts 230°
2026-04-22 19:37 57.38037 -2.23921 2499 ft 163 kts 231°
2026-04-22 19:38 57.37352 -2.25566 2486 ft 159 kts 231°
2026-04-22 19:38 57.36684 -2.27156 2484 ft 152 kts 230°
2026-04-22 19:38 57.36058 -2.28671 2482 ft 143 kts 230°
2026-04-22 19:38 57.35461 -2.30050 2496 ft 130 kts 226°
2026-04-22 19:39 57.34738 -2.30736 2476 ft 116 kts 169°
2026-04-22 19:39 57.34003 -2.30263 2480 ft 112 kts 155°
2026-04-22 19:39 57.33300 -2.29660 2468 ft 111 kts 151°
2026-04-22 19:39 57.32800 -2.28679 2459 ft 109 kts 96°
2026-04-22 19:40 57.33027 -2.27275 2478 ft 121 kts 69°
2026-04-22 19:40 57.33393 -2.25800 2496 ft 130 kts 66°
2026-04-22 19:40 57.33796 -2.24251 2497 ft 136 kts 65°
2026-04-22 19:40 57.34212 -2.22688 2642 ft 135 kts 65°
2026-04-22 19:41 57.34631 -2.21152 2892 ft 133 kts 65°
2026-04-22 19:41 57.35049 -2.19628 3138 ft 132 kts 65°
2026-04-22 19:41 57.35464 -2.18114 3353 ft 133 kts 65°
2026-04-22 19:41 57.35887 -2.16581 3568 ft 134 kts 65°
2026-04-22 19:42 57.36311 -2.15051 3766 ft 134 kts 64°
2026-04-22 19:42 57.36746 -2.13488 3892 ft 139 kts 62°
2026-04-22 19:42 57.37531 -2.12419 3929 ft 153 kts 11°
2026-04-22 19:42 57.38560 -2.12802 3962 ft 149 kts 343°
2026-04-22 19:43 57.40469 -2.14166 3986 ft 146 kts 340°
2026-04-22 19:43 57.41413 -2.14865 3983 ft 146 kts 340°
2026-04-22 19:43 57.42352 -2.15572 3983 ft 145 kts 340°
2026-04-22 19:44 57.43286 -2.16280 3991 ft 145 kts 340°
2026-04-22 19:44 57.44207 -2.17000 3989 ft 145 kts 336°
2026-04-22 19:44 57.44816 -2.18457 3982 ft 148 kts 279°
2026-04-22 19:44 57.44618 -2.20254 3986 ft 145 kts 247°
2026-04-22 19:45 57.44241 -2.21998 3843 ft 146 kts 245°
2026-04-22 19:45 57.43837 -2.23777 3630 ft 148 kts 245°
2026-04-22 19:45 57.43434 -2.25525 3418 ft 150 kts 245°
2026-04-22 19:45 57.43020 -2.27299 3221 ft 150 kts 245°
2026-04-22 19:46 57.42610 -2.29056 3089 ft 146 kts 245°
2026-04-22 19:46 57.42204 -2.30785 3044 ft 148 kts 245°
2026-04-22 19:46 57.41793 -2.32531 3016 ft 146 kts 244°
2026-04-22 19:46 57.41207 -2.33979 2990 ft 139 kts 204°
2026-04-22 19:47 57.40303 -2.34484 2993 ft 135 kts 191°
2026-04-22 19:47 57.39396 -2.34691 2986 ft 130 kts 163°
2026-04-22 19:47 57.38870 -2.34217 2992 ft 126 kts 148°
2026-04-22 19:47 57.38097 -2.33428 2998 ft 127 kts 148°
2026-04-22 19:48 57.37059 -2.32389 2999 ft 128 kts 149°
2026-04-22 19:48 57.36266 -2.31630 2993 ft 128 kts 152°
2026-04-22 19:48 57.35715 -2.31165 2998 ft 129 kts 154°
2026-04-22 19:48 57.34882 -2.30554 2994 ft 129 kts 158°
2026-04-22 19:49 57.34051 -2.29998 2998 ft 129 kts 158°
2026-04-22 19:49 57.33204 -2.29422 2860 ft 131 kts 157°
2026-04-22 19:49 57.32357 -2.28813 2679 ft 131 kts 156°
2026-04-22 19:49 57.31517 -2.28179 2491 ft 127 kts 155°
2026-04-22 19:50 57.30715 -2.27555 2317 ft 124 kts 155°
2026-04-22 19:50 57.29917 -2.26948 2131 ft 124 kts 155°
2026-04-22 19:50 57.29117 -2.26360 1956 ft 123 kts 156°
2026-04-22 19:50 57.28321 -2.25784 1788 ft 123 kts 156°
2026-04-22 19:51 57.27520 -2.25195 1608 ft 124 kts 156°
2026-04-22 19:51 57.26717 -2.24598 1433 ft 124 kts 156°
2026-04-22 19:51 57.25925 -2.23998 1254 ft 122 kts 155°
2026-04-22 19:51 57.25141 -2.23401 1030 ft 124 kts 156°
2026-04-22 19:52 57.24334 -2.22825 862 ft 124 kts 157°
2026-04-22 19:52 57.23543 -2.22252 685 ft 120 kts 155°
2026-04-22 19:52 57.22788 -2.21687 579 ft 115 kts 157°
2026-04-22 19:52 57.22042 -2.21141 441 ft 114 kts 156°
2026-04-22 19:53 57.21294 -2.20581 293 ft 116 kts 159°
2026-04-22 19:53 57.20554 -2.20041 216 ft 112 kts 158°
2026-04-22 19:53 57.19962 -2.19609 210 ft 44 kts 158°
2026-04-22 19:53 57.19797 -2.19487 209 ft 23 kts 157°
2026-04-22 19:54 57.19631 -2.19362 212 ft 28 kts 157°
2026-04-22 19:54 57.19446 -2.19252 206 ft 11 kts 191°
2026-04-22 19:54 57.19426 -2.19346 208 ft 12 kts 282°
2026-04-22 19:54 57.19503 -2.19484 210 ft 19 kts 321°
2026-04-22 19:55 57.19593 -2.19628 213 ft 19 kts 319°
2026-04-22 19:55 57.19723 -2.19753 209 ft 24 kts 337°
2026-04-22 19:55 57.19873 -2.19872 211 ft 14 kts 320°
2026-04-22 19:55 57.19962 -2.20029 205 ft 19 kts 317°
2026-04-22 19:56 57.20079 -2.20134 200 ft 18 kts 338°
2026-04-22 19:56 57.20198 -2.20221 198 ft 18 kts 338°
2026-04-22 19:56 57.20305 -2.20304 200 ft 6 kts 319°
2026-04-22 19:56 57.20302 -2.20407 198 ft 11 kts 236°
2026-04-22 19:57 57.20247 -2.20508 198 ft 7 kts 208°
2026-04-22 19:57 57.20209 -2.20478 206 ft 0 kts 135°